TimeEDT,TemperatureF,Dew PointF,Humidity,Sea Level PressureIn,VisibilityMPH,Wind Direction,Wind SpeedMPH,Gust SpeedMPH,PrecipitationIn,Events,Conditions,WindDirDegrees,DateUTC
12:15 AM,71.6,69.8,94,30.04,10.0,North,10.4,-,N/A,,Mostly Cloudy,10,2013-09-07 04:15:00
12:35 AM,71.6,69.8,94,30.03,10.0,North,5.8,-,N/A,,Scattered Clouds,10,2013-09-07 04:35:00
12:55 AM,71.6,69.8,94,30.03,10.0,NE,4.6,-,N/A,,Clear,50,2013-09-07 04:55:00
1:15 AM,71.6,69.8,94,30.02,10.0,ESE,3.5,-,N/A,,Clear,120,2013-09-07 05:15:00
1:35 AM,71.6,69.8,94,30.02,10.0,Calm,Calm,-,N/A,,Clear,0,2013-09-07 05:35:00
1:55 AM,71.6,69.8,94,30.02,10.0,Calm,Calm,-,N/A,,Clear,0,2013-09-07 05:55:00
2:15 AM,71.6,69.8,94,30.01,10.0,NNE,3.5,-,N/A,,Clear,20,2013-09-07 06:15:00
2:35 AM,71.6,69.8,94,30.01,10.0,Calm,Calm,-,N/A,,Clear,0,2013-09-07 06:35:00
2:55 AM,69.8,69.8,100,30.00,10.0,NNE,4.6,-,N/A,,Clear,20,2013-09-07 06:55:00
3:15 AM,69.8,69.8,100,30.01,10.0,NNE,4.6,-,N/A,,Clear,30,2013-09-07 07:15:00
3:35 AM,69.8,69.8,100,30.00,10.0,NE,4.6,-,N/A,,Clear,40,2013-09-07 07:35:00
3:55 AM,71.6,69.8,94,30.00,10.0,NNE,4.6,-,N/A,,Clear,30,2013-09-07 07:55:00
4:15 AM,69.8,69.8,100,30.00,10.0,Calm,Calm,-,N/A,,Clear,0,2013-09-07 08:15:00
4:35 AM,69.8,69.8,100,30.00,10.0,Calm,Calm,-,N/A,,Clear,0,2013-09-07 08:35:00
4:55 AM,69.8,68.0,94,29.99,10.0,Calm,Calm,-,N/A,,Clear,0,2013-09-07 08:55:00
5:15 AM,69.8,68.0,94,29.98,10.0,Calm,Calm,-,N/A,,Clear,0,2013-09-07 09:15:00
5:35 AM,69.8,69.8,100,29.99,10.0,ENE,3.5,-,N/A,,Clear,60,2013-09-07 09:35:00
5:50 AM,71.6,69.8,94,29.99,10.0,NNE,3.5,-,N/A,,Clear,30,2013-09-07 09:50:00
5:55 AM,69.8,68.0,94,29.99,10.0,Calm,Calm,-,N/A,,Clear,0,2013-09-07 09:55:00
6:15 AM,69.8,68.0,94,29.99,10.0,North,3.5,-,N/A,,Clear,350,2013-09-07 10:15:00
6:35 AM,69.8,69.8,100,30.00,10.0,North,5.8,-,N/A,,Clear,350,2013-09-07 10:35:00
6:50 AM,69.8,69.8,100,30.00,10.0,NNW,5.8,-,N/A,,Scattered Clouds,340,2013-09-07 10:50:00
7:55 AM,71.6,69.8,94,30.02,7.0,Calm,Calm,-,N/A,,Mostly Cloudy,0,2013-09-07 11:55:00
8:51 AM,73.4,71.6,94,30.02,7.0,NNE,8.1,-,N/A,,Mostly Cloudy,30,2013-09-07 12:51:00
9:50 AM,75.2,73.4,94,30.03,7.0,NNE,6.9,-,N/A,,Overcast,30,2013-09-07 13:50:00
10:50 AM,78.8,71.6,78,30.05,7.0,NE,6.9,-,N/A,,Mostly Cloudy,50,2013-09-07 14:50:00
11:10 AM,78.8,71.6,78,30.05,10.0,NE,9.2,-,N/A,,Mostly Cloudy,40,2013-09-07 15:10:00
11:55 AM,82.4,71.6,70,30.05,8.0,East,4.6,-,N/A,,Mostly Cloudy,90,2013-09-07 15:55:00
12:54 PM,82.4,69.8,66,30.03,10.0,ENE,4.6,-,N/A,,Mostly Cloudy,60,2013-09-07 16:54:00
1:51 PM,86.0,69.8,58,30.02,12.0,Calm,Calm,-,N/A,,Mostly Cloudy,0,2013-09-07 17:51:00
2:50 PM,87.8,68.0,52,29.99,15.0,Calm,Calm,-,N/A,,Scattered Clouds,0,2013-09-07 18:50:00
3:50 PM,89.6,66.2,46,29.96,15.0,Calm,Calm,-,N/A,,Scattered Clouds,0,2013-09-07 19:50:00
4:55 PM,89.6,66.2,46,29.93,15.0,NNW,8.1,-,N/A,,Scattered Clouds,340,2013-09-07 20:55:00
5:50 PM,89.6,66.2,46,29.94,15.0,NNE,8.1,-,N/A,,Scattered Clouds,30,2013-09-07 21:50:00
6:51 PM,80.6,66.2,61,29.96,15.0,East,8.1,-,N/A,,Mostly Cloudy,80,2013-09-07 22:51:00
7:53 PM,78.8,69.8,74,29.98,15.0,SE,6.9,-,N/A,,Overcast,140,2013-09-07 23:53:00
8:55 PM,77.0,69.8,78,29.99,12.0,South,4.6,-,N/A,,Scattered Clouds,190,2013-09-08 00:55:00
9:50 PM,75.2,69.8,83,30.00,12.0,SSW,3.5,-,N/A,,Scattered Clouds,200,2013-09-08 01:50:00
10:55 PM,73.4,69.8,88,30.00,10.0,West,3.5,-,N/A,,Clear,280,2013-09-08 02:55:00
11:15 PM,73.4,69.8,88,29.99,10.0,Calm,Calm,-,N/A,,Clear,0,2013-09-08 03:15:00
11:35 PM,73.4,69.8,88,29.99,10.0,Calm,Calm,-,N/A,,Clear,0,2013-09-08 03:35:00
11:55 PM,73.4,69.8,88,29.99,10.0,Calm,Calm,-,N/A,,Scattered Clouds,0,2013-09-08 03:55:00